Flag for Poland Weather past 2 weeks in Rzeszów, Poland

Now
43 °F

Fog.


Feels Like: 43 °F
Forecast: 51 / 66 °F
Wind: No wind

Location: Rzeszow-Jasionka


UV Index: 0 (Low)

Visibility: 2 mi


Pressure: 30.07 "Hg

Humidity: 100%

Dew point: 43 °F

Location of RzeszówLocation

Historic Weather in Rzeszów

°F

Rzeszów temperature yesterday

Maximum temperature yesterday: 72 °F (at 1:30 PM)
Minimum temperature yesterday: 48 °F (at 1:00 AM)
Average temperature yesterday: 57 °F

Past Weeks' High & Low Weather Summary

 TemperatureHumidityPressure
High73 °F (Apr 22, 3:00 PM)100% (Apr 9, 5:00 AM)30.30 "Hg (Apr 9, 5:00 AM)
Low34 °F (Apr 11, 3:30 AM)33% (Apr 22, 3:00 PM)29.65 "Hg (Apr 14, 2:00 PM)
Average49 °F79%29.97 "Hg
* Reported Apr 9 5:00 AM — Apr 24 5:30 AM, Rzeszów, Weather by CustomWeather, © 2014

Note: Actual official high and low records may vary slightly from our data, if they occured in-between our weather recording intervals... More about our weather records

Advertising

Historic Weather Conditions — Data for Previous 24 hours

 ConditionsComfort  
Time TempWeatherWind HumidityBarometerVisibility
5:30 AM
Apr 24
45 °FFog.No wind93%30.07 "Hg2 mi
5:00 AM45 °FFog.No wind100%30.07 "Hg2 mi
4:30 AM43 °FFog.No wind100%30.07 "Hg2 mi
4:00 AM45 °FFog.3 mph100%30.07 "Hg2 mi
3:30 AM45 °FFog.2 mph100%30.07 "Hg2 mi
3:00 AM45 °FFog.5 mph100%30.07 "Hg1 mi
2:30 AM46 °FFog.3 mph93%30.07 "Hg1 mi
2:00 AM46 °FCool.3 mph93%30.07 "Hg1 mi
1:30 AM46 °FClear.No wind100%30.07 "Hg4 mi
1:00 AM48 °FClear.1 mph94%30.07 "Hg4 mi
12:30 AM48 °FClear.3 mph94%30.07 "Hg4 mi
12:00 AM50 °FClear.No wind94%30.07 "Hg4 mi
11:30 PM
Apr 23
50 °FClear.No wind94%30.07 "Hg4 mi
11:00 PM52 °FClear.1 mph94%30.07 "Hg4 mi
10:30 PM52 °FClear.5 mph94%30.07 "Hg4 mi
10:00 PM52 °FClear.1 mph100%30.07 "Hg10 mi
9:30 PM54 °FClear.No wind94%30.07 "Hg10 mi
9:00 PM55 °FClear.5 mph94%30.07 "Hg10 mi
8:30 PM55 °FSunny.1 mph94%30.07 "Hg10 mi
8:00 PM55 °FSunny.No wind94%30.07 "Hg10 mi
7:30 PM59 °FPassing clouds.3 mph88%30.07 "HgN/A
7:00 PM59 °FPassing clouds.3 mph88%30.04 "HgN/A
6:30 PM61 °FPassing clouds.No wind83%30.04 "HgN/A
6:00 PM61 °FSunny.No wind83%30.04 "Hg10 mi
5:30 PM61 °FPassing clouds.1 mph72%30.04 "HgN/A
5:00 PM63 °FPassing clouds.2 mph68%30.04 "HgN/A
4:30 PM63 °FThunderstorms. Scattered clouds.5 mph68%30.04 "HgN/A
4:00 PM61 °FThunderstorms. Scattered clouds.8 mph72%30.04 "HgN/A
3:30 PM63 °FThunderstorms. Partly sunny.8 mph64%30.04 "HgN/A
3:00 PM68 °FThunderstorms. Partly sunny.14 mph46%30.04 "HgN/A
2:30 PM72 °FThunderstorms. Scattered clouds.5 mph47%30.04 "HgN/A
2:00 PM72 °FScattered clouds.6 mph47%30.04 "HgN/A
1:30 PM72 °FScattered clouds.5 mph47%30.07 "HgN/A
1:00 PM70 °FPassing clouds.5 mph53%30.07 "HgN/A
12:30 PM68 °FPassing clouds.7 mph56%30.07 "HgN/A
12:00 PM66 °FPassing clouds.6 mph60%30.07 "HgN/A
11:30 AM64 °FPassing clouds.6 mph68%30.07 "HgN/A
11:00 AM63 °FPassing clouds.6 mph73%30.09 "HgN/A
10:30 AM61 °FClear.5 mph83%30.09 "Hg5 mi
10:00 AM59 °FClear.5 mph82%30.07 "Hg5 mi
9:30 AM57 °FClear.5 mph88%30.07 "Hg4 mi
9:00 AM57 °FClear.5 mph88%30.07 "Hg4 mi
8:30 AM55 °FClear.5 mph94%30.07 "Hg4 mi
8:00 AM55 °FClear.5 mph88%30.07 "Hg4 mi
7:30 AM54 °FSunny.No wind94%30.07 "Hg10 mi
7:00 AM52 °FSunny.No wind94%30.04 "Hg10 mi
6:30 AM50 °FSunny.3 mph94%30.04 "Hg10 mi
6:00 AM50 °FClear.3 mph94%30.04 "Hg10 mi
Weather by CustomWeather, © 2014

See weather overview